TimeCST,TemperatureF,Dew PointF,Humidity,Sea Level PressureIn,VisibilityMPH,Wind Direction,Wind SpeedMPH,Gust SpeedMPH,PrecipitationIn,Events,Conditions,WindDirDegrees,DateUTC
12:43 AM,46.4,44.6,93,29.80,2.5,West,9.2,-,N/A,,Overcast,270,2013-01-28 06:43:00
12:53 AM,46.0,45.0,96,29.82,2.5,West,9.2,-,N/A,,Overcast,270,2013-01-28 06:53:00
1:10 AM,46.4,44.6,93,29.81,1.8,West,8.1,-,N/A,,Overcast,260,2013-01-28 07:10:00
1:26 AM,44.6,44.6,100,29.81,0.5,West,8.1,-,N/A,Fog,Fog,270,2013-01-28 07:26:00
1:53 AM,44.1,43.0,96,29.85,1.0,WNW,10.4,-,N/A,,Mist,290,2013-01-28 07:53:00
2:06 AM,42.8,42.8,100,29.83,0.8,WNW,10.4,-,N/A,,Mist,290,2013-01-28 08:06:00
2:14 AM,42.8,42.8,100,29.83,1.2,WNW,6.9,-,N/A,,Overcast,290,2013-01-28 08:14:00
2:27 AM,42.8,41.0,93,29.83,0.5,West,6.9,-,N/A,Fog,Fog,280,2013-01-28 08:27:00
2:53 AM,41.0,41.0,100,29.86,0.5,West,6.9,-,N/A,Fog,Fog,280,2013-01-28 08:53:00
3:53 AM,39.9,39.0,97,29.86,0.2,WNW,5.8,-,N/A,Fog,Fog,300,2013-01-28 09:53:00
4:53 AM,37.9,37.0,97,29.87,0.2,NNW,4.6,-,N/A,Fog,Fog,330,2013-01-28 10:53:00
5:53 AM,37.0,37.0,100,29.88,0.2,NNE,3.5,-,N/A,Fog,Fog,20,2013-01-28 11:53:00
6:53 AM,37.0,36.0,96,29.89,0.2,NNE,6.9,-,N/A,Fog,Fog,20,2013-01-28 12:53:00
7:53 AM,36.0,35.1,97,29.91,0.2,East,3.5,-,N/A,Fog,Fog,80,2013-01-28 13:53:00
8:53 AM,37.0,36.0,96,29.91,0.2,NE,8.1,-,N/A,Fog,Fog,50,2013-01-28 14:53:00
9:53 AM,37.9,37.0,97,29.90,0.2,East,4.6,-,N/A,Fog,Fog,100,2013-01-28 15:53:00
10:53 AM,39.0,37.9,96,29.90,0.5,East,5.8,-,N/A,Fog,Fog,80,2013-01-28 16:53:00
11:37 AM,39.2,39.2,100,29.86,2.0,ENE,5.8,-,N/A,,Overcast,70,2013-01-28 17:37:00
11:45 AM,39.2,39.2,100,29.85,3.0,East,6.9,-,N/A,,Overcast,80,2013-01-28 17:45:00
11:53 AM,39.9,39.0,97,29.86,4.0,East,5.8,-,N/A,,Overcast,80,2013-01-28 17:53:00
12:11 PM,41.0,39.2,93,29.84,1.8,East,5.8,-,N/A,,Overcast,80,2013-01-28 18:11:00
12:37 PM,42.8,41.0,93,29.82,0.8,East,6.9,-,N/A,,Overcast,90,2013-01-28 18:37:00
12:53 PM,43.0,42.1,97,29.83,0.5,ESE,6.9,-,N/A,Fog,Fog,110,2013-01-28 18:53:00
1:53 PM,45.0,44.1,97,29.78,0.2,East,9.2,-,N/A,Fog,Fog,100,2013-01-28 19:53:00
2:53 PM,46.9,46.0,97,29.77,0.2,East,6.9,-,N/A,Fog,Fog,100,2013-01-28 20:53:00
3:53 PM,48.9,48.0,97,29.75,0.2,East,6.9,-,N/A,Fog,Fog,100,2013-01-28 21:53:00
4:53 PM,50.0,48.9,96,29.73,0.2,East,5.8,-,N/A,Fog,Fog,100,2013-01-28 22:53:00
5:53 PM,50.0,50.0,100,29.71,0.2,ESE,9.2,-,N/A,Fog,Fog,110,2013-01-28 23:53:00
6:53 PM,51.1,50.0,96,29.70,0.2,ESE,8.1,-,0.01,Fog,Fog,110,2013-01-29 00:53:00
7:18 PM,51.8,51.8,100,29.67,1.8,ESE,8.1,-,N/A,,Mostly Cloudy,120,2013-01-29 01:18:00
7:22 PM,51.8,51.8,100,29.67,3.0,ESE,8.1,-,N/A,,Mostly Cloudy,120,2013-01-29 01:22:00
7:53 PM,53.1,52.0,96,29.68,6.0,SE,9.2,-,N/A,,Scattered Clouds,140,2013-01-29 01:53:00
8:53 PM,57.9,55.0,90,29.66,10.0,South,11.5,18.4,N/A,,Partly Cloudy,170,2013-01-29 02:53:00
9:53 PM,59.0,55.0,87,29.64,10.0,South,10.4,-,N/A,,Scattered Clouds,170,2013-01-29 03:53:00
10:53 PM,59.0,55.0,87,29.63,10.0,South,15.0,-,N/A,,Partly Cloudy,180,2013-01-29 04:53:00
11:53 PM,57.9,55.0,90,29.62,10.0,South,11.5,-,N/A,,Clear,180,2013-01-29 05:53:00